Preview of NWS' New Version of Forecast
This preview is not operational and should not be used for support decisions.

Regional Weather Roundup (RWR)

Issued by National Weather Service (NWS)

                            
000
ASUS43 KMKX 210510
RWRWI 

WISCONSIN REGIONAL WEATHER ROUNDUP
NATIONAL WEATHER SERVICE MILWAUKEE/SULLIVAN WI
1100 PM CST WED FEB 20 2019

NOTE: "FAIR" INDICATES FEW OR NO CLOUDS BELOW 12,000 FEET WITH NO
SIGNIFICANT WEATHER AND/OR OBSTRUCTIONS TO VISIBILITY.

WIZ001-002-006>008-014>016-023>028-210600-
NORTHWEST WISCONSIN
  
CITY           SKY/WX    TMP DP  RH WIND       PRES   REMARKS
SUPERIOR ARPT  CLOUDY    22  22  98 CALM      29.67R                  
ASHLAND        CLOUDY    21  20  96 W6        29.64R WCI  13          
HAYWARD        CLOUDY    16  14  92 W3        29.64                   
SIREN          LGT SNOW  21  19  94 W3        29.68R                  
CUMBERLAND     LGT SNOW  25  21  86 W12       29.66R WCI  14          
RICE LAKE      LGT SNOW  26  12  54 SW13      29.69R WCI  15          
CHETEK         LGT SNOW  26  23  89 SW10G17   29.69R WCI  15          
LADYSMITH      LGT SNOW  27  24  90 W7        29.66R WCI  19          
EAU CLAIRE     CLOUDY    23  18  81 SW16G23   29.72R HAZE    WCI  10  
MENOMONIE      FLURRIES  21  15  77 SW18      29.72R WCI   6          
NEW RICHMOND   LGT SNOW  23  18  81 SW13      29.71R WCI  11          
OSCEOLA        CLOUDY    24  21  88 SW13      29.74R WCI  12          
$$
 
WIZ003>005-009-010-017-018-210600-
NORTH CENTRAL WISCONSIN
  
CITY           SKY/WX    TMP DP  RH WIND       PRES   REMARKS
MANITOWISH WTR NOT AVBL                                               
ARBOR VITAE    CLOUDY    24  22  93 W7        29.59R WCI  16          
WOODRUFF       CLOUDY    24  22  93 W7        29.59R WCI  16          
RHINELANDER    CLOUDY    26  21  81 W10       29.60R WCI  16          
EAGLE RIVER    CLOUDY    22  21  96 W8        29.58R WCI  12          
LAND O LAKES   CLOUDY    20  19  94 SW3       29.59R                  
PHILLIPS       CLOUDY    25  23  93 W9        29.62R WCI  15          
TOMAHAWK       CLOUDY    26  22  87 W5        29.62R WCI  20          
MEDFORD        LGT SNOW  25  22  87 W9        29.64R WCI  16          
MERRILL        MIX PCPN  27  24  86 W10       29.65R WCI  18          
$$
 
WIZ029-030-035-036-043>047-210600-
CENTRAL WISCONSIN
  
CITY           SKY/WX    TMP DP  RH WIND       PRES   REMARKS
WAUSAU         CLOUDY    28  22  78 W12       29.65R WCI  18          
MOSINEE        FLURRIES  28  27  93 SW16G23   29.68R WCI  17          
MARSHFIELD     LGT SNOW  26  22  84 SW14G26   29.67R FOG     WCI  14  
STEVENS POINT  MIX PCPN  27  20  76 W18G25    29.70R WCI  14          
WAUPACA        MOCLDY    32  24  73 SW12      29.71R WCI  23          
WAUTOMA        CLOUDY    29  22  75 W14G28    29.74R WCI  18          
WISC RAPIDS    CLOUDY    28  17  63 W12G26    29.72R WCI  18          
CAMP DOUGLAS   FLURRIES  27  19  74 W16G28    29.75R WCI  14          
$$
 
WIZ011>013-019>022-031-037>040-048>050-210600-
NORTHEAST WISCONSIN
  
CITY           SKY/WX    TMP DP  RH WIND       PRES   REMARKS
ANTIGO         CLOUDY    26  24  91 W13G21    29.63R WCI  15          
SHAWANO        CLOUDY    32  28  86 W9G18     29.67R WCI  24          
OCONTO         CLOUDY    31  26  83 W10G18    29.67R WCI  22          
STURGEON BAY   MIX PCPN  31  27  85 W18G25    29.65R WCI  19          
GREEN BAY      CLOUDY    34  25  69 W15       29.69R WCI  24          
MANITOWOC      CLOUDY    33  24  69 W20G31    29.71R WCI  21          
APPLETON       CLOUDY    32  21  64 SW15      29.69R WCI  22          
CLINTONVILLE   CLOUDY    31  24  75 W13G26    29.69R WCI  21          
OSHKOSH        CLOUDY    31  21  66 W12G24    29.72R WCI  22          
$$
 
WIZ032>034-041-042-053>061-210600-
SOUTHWEST WISCONSIN
  
CITY           SKY/WX    TMP DP  RH WIND       PRES   REMARKS
LA CROSSE      MOCLDY    23  14  68 W13       29.81R WCI  11          
SPARTA         FLURRIES  26  21  82 W9G17     29.78R WCI  16          
VIROQUA        CLOUDY    23  20  87 W18G26    29.78R WCI   9          
BOSCOBEL       CLOUDY    27  16  63 W9G21     29.85R WCI  18          
PRAIRIE DU CHI FAIR      25  15  66 W10G17    29.86R WCI  14          
PLATTEVILLE    FAIR      24  19  81 W25       29.85R WCI   8          
$$

WIZ056-057-062-063-064-067-068-210600-
SOUTH CENTRAL WISCONSIN
  
CITY           SKY/WX    TMP DP  RH WIND       PRES   REMARKS
REEDSBURG      CLOUDY    27  18  70 W15       29.78R WCI  15          
BARABOO/DELLS  CLOUDY    28  22  76 W15G23    29.76R WCI  17          
LONE ROCK      CLOUDY    28  20  71 W14G29    29.81R WCI  17          
MINERAL POINT  CLOUDY    27  21  80 W24G30    29.81R WCI  12          
MADISON        MOCLDY    29  19  66 SW9G26    29.79R WCI  20          
MIDDLETON      CLOUDY    30  22  73 W17G25    29.79R WCI  18          
WATERTOWN      CLOUDY    31  23  71 SW14G20   29.78R WCI  21          
MONROE         MOCLDY    28  19  68 MISG      29.82R                  
JANESVILLE     CLOUDY    32  25  74 W25G31    29.83R WCI  19          
$$
 
WIZ051-052-058>065-066-070>072-210600-
SOUTHEAST WISCONSIN
  
CITY           SKY/WX    TMP DP  RH WIND       PRES   REMARKS
MILWAUKEE      CLOUDY    34  22  61 W23G35    29.80R WCI  22          
WAUKESHA       CLOUDY    30  21  69 W21G32    29.80R WCI  17          
MILWAUKEE/TIMM CLOUDY    32  21  64 W21G31    29.79R WCI  20          
RACINE         CLOUDY    35  24  64 W20G28    29.81R WCI  24          
KENOSHA        CLOUDY    35  26  69 W23G31    29.82R WCI  23          
FOND DU LAC    CLOUDY    32  21  64 W14G31    29.74R WCI  22          
SHEBOYGAN      CLOUDY    32  24  72 W17G28    29.72R WCI  21          
WEST BEND      CLOUDY    32  23  69 W14G21    29.75R WCI  22          
JUNEAU         CLOUDY    30  23  77 SW15      29.77R WCI  19          
$$

LSZ147-162-210600-
LAKE SUPERIOR
  
STATION/POSITION TIME  TEMP    WIND        PRES    WAVE
                       AIR SEA DIR/SP/G            HT/PER
                 (UTC) (F)     (DEG/KT/KT) (MB)    (FT/S)
DEVILS ISLAND    0500   24     170/  3/  3 1004.3R
SAXON HARBOR     0430   19     190/  2/  2 1003.0R
$$
 
LMZ867-665-643>646-210600-
LAKE MICHIGAN
  
STATION/POSITION TIME  TEMP    WIND        PRES    WAVE
                       AIR SEA DIR/SP/G            HT/PER
                 (UTC) (F)     (DEG/KT/KT) (MB)    (FT/S)
CHAMBERS ISLAND  0440   27     220/  8/ 13 1003.4R
NORTHPORT PIER   0440   30     230/  3/ 10 1003.7R
KEWAUNEE LAKESHO 0436   33     260/ 13/ 19 1004.2R
SHEBOYGAN LAKESH 0500   34     240/ 13/ 16 1007.6R
PORT WASHINGTON  0430   34     260/ 10/ 19 1008.8R
MILWAUKEE LAKESH 0450   35     250/ 11/ 19   N/A
KENOSHA   LAKESH 0500   35     250/ 14/ 20 1010.2
$$

TC  - TEMPERATURE IN CELSIUS
VSB - VISIBILITY IN STATUTE MILES
WCI - WIND CHILL INDEX
HX  - HEAT INDEX